DW4219 Weather Reports


Display with metric or nautical units.
time (UTC)temp
F
wind
direction
speed
MPH
gust
MPH
rain 1hr
in
rain 24hr
in
rain mn
in
humidity
%
barometer
mb
20260906234511 66 189 16.0 28.0 0.00 0.00 0.00 65 1008.8
20260906233010 66 189 19.0 27.0 0.00 0.00 0.00 66 1009.0
20260906231514 65 207 17.0 29.0 0.00 0.00 0.00 69 1008.5
20260906230011 65 266 9.0 24.0 0.00 0.00 0.00 72 1009.1
20260906224506 65 241 20.0 35.0 0.00 0.00 0.00 72 1008.7
20260906223004 67 210 18.0 30.0 0.00 0.00 0.00 67 1009.9
20260906221510 67 194 14.0 26.0 0.00 0.00 0.00 66 1010.2
20260906220003 68 150 12.0 23.0 0.00 0.00 0.00 63 1009.9
20260906214600 69 169 7.0 24.0 0.00 0.00 0.00 61 1009.3
20260906213108 69 208 18.0 29.0 0.00 0.00 0.00 61 1010.3
20260906211610 69 191 14.0 23.0 0.00 0.00 0.00 59 1010.3
20260906210106 70 214 9.0 29.0 0.00 0.00 0.00 58 1009.5
20260906204554 69 165 11.0 26.0 0.00 0.00 0.00 57 1010.2
20260906203054 69 165 10.0 21.0 0.00 0.00 0.00 56 1010.4
20260906201608 70 198 13.0 22.0 0.00 0.00 0.00 54 1010.6
20260906200052 70 141 15.0 27.0 0.00 0.00 0.00 53 1010.4
20260906194552 70 289 14.0 28.0 0.00 0.00 0.00 53 1010.6
20260906193053 71 210 13.0 26.0 0.00 0.00 0.00 52 1010.6
20260906191554 72 235 13.0 29.0 0.00 0.00 0.00 49 1010.3
20260906190048 72 212 18.0 28.0 0.00 0.00 0.00 48 1010.6
20260906184548 72 234 16.0 27.0 0.00 0.00 0.00 46 1010.5
20260906183110 72 181 13.0 26.0 0.00 0.00 0.00 48 1010.3
20260906181551 72 169 16.0 28.0 0.00 0.00 0.00 48 1010.4
20260906180108 72 201 14.0 27.0 0.00 0.00 0.00 48 1010.7
20260906174545 72 176 14.0 28.0 0.00 0.00 0.00 47 1010.8
20260906173044 72 220 15.0 28.0 0.00 0.00 0.00 45 1010.8
20260906171543 72 205 15.0 26.0 0.00 0.00 0.00 43 1010.9
20260906170042 72 174 15.0 25.0 0.00 0.00 0.00 42 1011.0
20260906164642 72 182 15.0 26.0 0.00 0.00 0.00 42 1010.7
20260906163040 72 211 12.0 22.0 0.00 0.00 0.00 41 1010.7
20260906161543 72 203 14.0 21.0 0.00 0.00 0.00 41 1010.7
20260906160039 72 186 13.0 20.0 0.00 0.00 0.00 40 1010.7
20260906154536 72 171 11.0 18.0 0.00 0.00 0.00 40 1011.0
20260906153038 71 161 11.0 18.0 0.00 0.00 0.00 41 1011.0
20260906151537 71 219 7.0 13.0 0.00 0.00 0.00 42 1011.0
20260906150037 71 188 8.0 13.0 0.00 0.00 0.00 44 1011.2
20260906144533 70 194 5.0 13.0 0.00 0.00 0.00 45 1011.2
20260906143033 69 156 6.0 15.0 0.00 0.00 0.00 45 1011.0
20260906141536 69 172 9.0 15.0 0.00 0.00 0.00 46 1011.0
20260906140038 66 222 2.0 7.0 0.00 0.00 0.00 49 1010.8
20260906134529 62 132 0.0 2.0 0.00 0.00 0.00 55 1010.9
20260906133029 61 229 0.0 1.0 0.00 0.00 0.00 54 1010.9
20260906131529 63 338 0.0 1.0 0.00 0.00 0.00 53 1010.7
20260906130030 61 357 0.0 1.0 0.00 0.00 0.00 54 1010.7
20260906124526 59 5 0.0 1.0 0.00 0.00 0.00 59 1010.8
20260906123032 59 279 0.0 1.0 0.00 0.00 0.00 57 1010.9
20260906121537 60 150 0.0 1.0 0.00 0.00 0.00 55 1010.7
20260906120023 58 112 0.0 2.0 0.00 0.00 0.00 58 1010.8
20260906114529 59 263 0.0 1.0 0.00 0.00 0.00 55 1010.8
20260906113039 60 140 0.0 2.0 0.00 0.00 0.00 55 1010.7
20260906111523 60 130 0.0 2.0 0.00 0.00 0.00 54 1010.7
20260906110020 59 198 0.0 2.0 0.00 0.00 0.00 54 1010.7
20260906104527 60 259 0.0 0.0 0.00 0.00 0.00 53 1010.6
20260906103013 61 260 0.0 1.0 0.00 0.00 0.00 50 1010.6
20260906101510 66 149 0.0 8.0 0.00 0.00 0.00 44 1010.5
20260906100016 66 125 2.0 4.0 0.00 0.00 0.00 44 1010.4
20260906094507 67 115 3.0 7.0 0.00 0.00 0.00 43 1010.6
20260906093008 67 146 3.0 6.0 0.00 0.00 0.00 43 1010.7
20260906091513 66 93 4.0 8.0 0.00 0.00 0.00 43 1010.6
20260906090003 65 150 0.0 2.0 0.00 0.00 0.00 45 1010.7
20260906084559 66 203 0.0 2.0 0.00 0.00 0.00 44 1010.8
20260906083058 66 160 1.0 3.0 0.00 0.00 0.00 43 1011.1
20260906081558 67 219 0.0 2.0 0.00 0.00 0.00 40 1011.2
20260906080052 68 191 0.0 1.0 0.00 0.00 0.00 38 1011.4
20260906074608 69 167 3.0 9.0 0.00 0.00 0.00 37 1011.2
20260906073047 70 215 0.0 7.0 0.00 0.00 0.00 37 1011.2
20260906071545 71 146 2.0 5.0 0.00 0.00 0.00 37 1011.2
20260906070043 72 185 4.0 11.0 0.00 0.00 0.00 35 1011.3
20260906064541 72 232 6.0 15.0 0.00 0.00 0.00 34 1011.1
20260906063039 72 226 6.0 16.0 0.00 0.00 0.00 32 1010.9
20260906061538 72 205 4.0 13.0 0.00 0.00 0.00 32 1011.0
20260906060035 71 218 4.0 11.0 0.00 0.00 0.00 32 1011.1
20260906054536 70 202 1.0 6.0 0.00 0.00 0.00 32 1011.1
20260906053035 70 200 1.0 7.0 0.00 0.00 0.00 32 1011.1
20260906051533 69 217 1.0 7.0 0.00 0.00 0.00 32 1011.1
20260906050043 68 210 0.0 4.0 0.00 0.00 0.00 34 1011.2
20260906044536 67 217 0.0 1.0 0.00 0.00 0.00 34 1011.2
20260906043032 66 184 0.0 0.0 0.00 0.00 0.00 34 1011.1
20260906041535 69 183 0.0 0.0 0.00 0.00 0.00 31 1011.1
20260906040030 71 194 0.0 4.0 0.00 0.00 0.00 29 1011.0
20260906034530 71 170 0.0 7.0 0.00 0.00 0.00 28 1010.9
20260906033039 72 175 2.0 6.0 0.00 0.00 0.00 28 1010.7
20260906031530 72 176 2.0 6.0 0.00 0.00 0.00 27 1010.7
20260906030028 74 153 3.0 11.0 0.00 0.00 0.00 26 1010.6
20260906024528 74 206 3.0 9.0 0.00 0.00 0.00 25 1010.4
20260906023027 75 168 6.0 12.0 0.00 0.00 0.00 24 1010.4
20260906021526 75 178 6.0 13.0 0.00 0.00 0.00 24 1010.2
20260906020025 76 212 5.0 14.0 0.00 0.00 0.00 23 1010.2
20260906014531 77 151 7.0 17.0 0.00 0.00 0.00 23 1010.2
20260906013024 79 213 13.0 23.0 0.00 0.00 0.00 21 1010.3
20260906011533 80 210 9.0 18.0 0.00 0.00 0.00 20 1010.3
20260906010025 80 197 11.0 21.0 0.00 0.00 0.00 20 1010.3
20260906004522 80 224 14.0 24.0 0.00 0.00 0.00 19 1010.2
20260906003023 80 277 14.0 24.0 0.00 0.00 0.00 18 1010.1
20260906001523 81 210 14.0 24.0 0.00 0.00 0.00 19 1010.2
20260906000020 81 204 11.0 30.0 0.00 0.00 0.00 19 1010.1